Weather History for Anderson, SC

Change the Weather History Date:

Wednesday, November 21, 2012

  Actual Average Record
Temperature  
Mean Temperature 52 °F -  
Max Temperature 66 °F 59 °F 76 °F (1991)
Min Temperature 37 °F 39 °F 23 °F (1951)
Degree Days  
Heating Degree Days 14    
Growing Degree Days 2 (Base 50)    
Moisture  
Dew Point 40 °F    
Average Humidity 71    
Maximum Humidity 100    
Minimum Humidity 34    
Precipitation  
Precipitation 0.00 in - - ()
Sea Level Pressure  
Sea Level Pressure 30.13 in    
Wind  
Wind Speed 1 mph (ENE)    
Max Wind Speed 7 mph    
Max Gust Speed -    
Visibility 10 miles    
Events      
Averages and records for this station are not official NWS values.
T = Trace of Precipitation, MM = Missing Value Source: NWS Daily Summary

Daily Weather History Graph

Daily Weather History Graph

Search for Another Location

Airport:

Trip Planner

Search our weather history database for the weather conditions in past years. The results will help you decide how hot, cold, wet, or windy it might be!

Date:

Astronomy

Nov. 21, 2012 Rise Set
Actual Time 7:10 AM EST 5:22 PM EST
Civil Twilight 6:43 AM EST 5:50 PM EST
Nautical Twilight 6:12 AM EST 6:20 PM EST
Astronomical Twilight 5:42 AM EST 6:50 PM EST
Moon 1:24 PM EST (11/21) 12:44 AM EST (11/21)
Length of Visible Light 11h 06m
Length of Day
10h 12m
First Quarter, 61% of the Moon is Illuminated
Nov 21
First Quarter
Nov 28
Full
Dec 6
Last Quarter
Dec 13
New
Dec 20
First Quarter

Hourly Weather History & Observations

Time (EST) Temp. Dew Point Humidity Pressure Visibility Wind Dir Wind Speed Gust Speed Precip Events Conditions
12:56 AM 42.1 °F 39.9 °F 92% 30.09 in 10.0 mi Calm Calm - N/A   Clear
1:56 AM 42.1 °F 41.0 °F 96% 30.09 in 10.0 mi Calm Calm - N/A   Clear
2:56 AM 37.9 °F 37.9 °F 100% 30.09 in 10.0 mi Calm Calm - N/A   Clear
3:56 AM 39.0 °F 39.0 °F 100% 30.09 in 10.0 mi Calm Calm - N/A   Clear
4:56 AM 37.9 °F 37.0 °F 97% 30.10 in 9.0 mi Calm Calm - N/A   Clear
5:56 AM 37.9 °F 37.0 °F 97% 30.12 in 10.0 mi Calm Calm - N/A   Clear
6:56 AM 37.9 °F 37.0 °F 97% 30.12 in 10.0 mi Calm Calm - N/A   Clear
7:56 AM 39.9 °F 39.0 °F 97% 30.14 in 10.0 mi Calm Calm - N/A   Clear
8:56 AM 50.0 °F 45.0 °F 83% 30.16 in 10.0 mi NE 4.6 mph - N/A   Clear
9:56 AM 55.9 °F 41.0 °F 57% 30.17 in 10.0 mi ENE 5.8 mph - N/A   Clear
10:56 AM 61.0 °F 39.9 °F 46% 30.17 in 10.0 mi ENE 5.8 mph - N/A   Clear
11:56 AM 64.9 °F 39.0 °F 39% 30.15 in 10.0 mi Calm Calm - N/A   Clear
12:56 PM 64.9 °F 37.9 °F 37% 30.13 in 10.0 mi East 5.8 mph - N/A   Clear
1:56 PM 66.9 °F 37.9 °F 34% 30.11 in 10.0 mi North 6.9 mph - N/A   Clear
3:56 PM 66.9 °F 39.0 °F 36% 30.10 in 10.0 mi Calm Calm - N/A   Clear
4:56 PM 64.9 °F 39.0 °F 39% 30.11 in 10.0 mi ESE 3.5 mph - N/A   Clear
5:56 PM 57.9 °F 41.0 °F 53% 30.13 in 10.0 mi Calm Calm - N/A   Clear
6:56 PM 53.1 °F 42.1 °F 66% 30.14 in 10.0 mi Calm Calm - N/A   Clear
7:56 PM 51.1 °F 41.0 °F 68% 30.16 in 10.0 mi Calm Calm - N/A   Clear
8:56 PM 50.0 °F 41.0 °F 71% 30.16 in 10.0 mi Calm Calm - N/A   Clear
9:56 PM 48.9 °F 39.9 °F 71% 30.17 in 10.0 mi NNE 3.5 mph - N/A   Clear
10:56 PM 45.0 °F 39.9 °F 82% 30.17 in 10.0 mi Calm Calm - N/A   Clear
11:56 PM 43.0 °F 39.0 °F 86% 30.17 in 10.0 mi Calm Calm - N/A   Clear